This is the latest recevied weather packets stored in our database for station/object OE3UKW. If no packets are shown the sender has not sent any weather packets the latest 1 day(s).
| Time | Temp. | Humidity | Pressure | Rain* | Wind** | Luminosity | Snow |
|---|---|---|---|---|---|---|---|
| 1777980671 | 26.67° C | 21% | 1008.6 hPa | 0 mm | 7.15 m/s, 184° | 854 W/m² | - |
| 1777980071 | 26.11° C | 25% | 1008.8 hPa | 0 mm | 6.26 m/s, 175° | 853 W/m² | - |
| 1777979471 | 25.56° C | 25% | 1008.8 hPa | 0 mm | 8.49 m/s, 152° | 832 W/m² | - |
| 1777978871 | 25.56° C | 25% | 1009 hPa | 0 mm | 8.49 m/s, 138° | 684 W/m² | - |
| 1777978271 | 25.56° C | 24% | 1008.9 hPa | 0 mm | 8.49 m/s, 163° | 878 W/m² | - |
| 1777977671 | 25.56° C | 25% | 1009 hPa | 0 mm | 8.94 m/s, 152° | 875 W/m² | - |
| 1777977070 | 25° C | 26% | 1009.1 hPa | 0 mm | 7.6 m/s, 144° | 742 W/m² | - |
| 1777976471 | 24.44° C | 31% | 1009.3 hPa | 0 mm | 6.26 m/s, 130° | 820 W/m² | - |
| 1777975871 | 23.89° C | 32% | 1009.5 hPa | 0 mm | 7.15 m/s, 145° | 852 W/m² | - |
| 1777975270 | 23.33° C | 32% | 1009.7 hPa | 0 mm | 5.81 m/s, 115° | 854 W/m² | - |
| 1777974670 | 23.33° C | 34% | 1010 hPa | 0 mm | 5.36 m/s, 140° | 850 W/m² | - |
| 1777974070 | 22.78° C | 35% | 1010.1 hPa | 0 mm | 5.36 m/s, 141° | 850 W/m² | - |
| 1777973471 | 21.67° C | 35% | 1010.1 hPa | 0 mm | 4.02 m/s, 146° | 495 W/m² | - |
| 1777972871 | 21.67° C | 37% | 1010.2 hPa | 0 mm | 3.13 m/s, 156° | 529 W/m² | - |
| 1777972270 | 21.11° C | 39% | 1010.2 hPa | 0 mm | 3.13 m/s, 165° | 554 W/m² | - |
| 1777971670 | 21.11° C | 38% | 1010.2 hPa | 0 mm | 5.36 m/s, 150° | 461 W/m² | - |
| 1777971070 | 21.11° C | 38% | 1010.3 hPa | 0 mm | 5.81 m/s, 174° | 728 W/m² | - |
| 1777970470 | 21.11° C | 37% | 1010.3 hPa | 0 mm | 4.92 m/s, 175° | 720 W/m² | - |
| 1777969870 | 20.56° C | 38% | 1010.4 hPa | 0 mm | 4.92 m/s, 146° | 715 W/m² | - |
| 1777969270 | 20° C | 40% | 1010.4 hPa | 0 mm | 4.92 m/s, 169° | 715 W/m² | - |
| 1777968670 | 18.89° C | 44% | 1010.4 hPa | 0 mm | 4.02 m/s, 155° | 672 W/m² | - |
| 1777968070 | 18.33° C | 42% | 1010.5 hPa | 0 mm | 4.02 m/s, 162° | 324 W/m² | - |
| 1777967470 | 18.33° C | 44% | 1010.5 hPa | 0 mm | 4.47 m/s, 154° | 393 W/m² | - |
| 1777966870 | 18.33° C | 43% | 1010.4 hPa | 0 mm | 4.02 m/s, 147° | 353 W/m² | - |
| 1777966270 | 18.33° C | 42% | 1010.6 hPa | 0 mm | 5.36 m/s, 176° | 264 W/m² | - |
* Rain latest hour (hover to see other rain measurements)
** Current wind speed in m/s (hover to see current wind gust speed)